SCP
0 0 0 0 0 0 0 0 0 0 0 0 0 0 0 0 0 0 1 0 0 0 0 0 0 0 0 0 0 0 0 0 0 0 0 0 0 0 0 0 0 0 0 0
0 0 0 -0 0 0 0 0 0 0 -0 0 0 0 0 0 0 0 0 0 0 0 0 0 0 0 0 0 0 0 0 0 0 0 0 0 0 0 0 0 0 0 0 0
0 0 0 0 -0 0 0 0 0 0 0 0 0 0 0 0 0 0 0 0 0 0 0 0 0 0 0 0 0 0 0 0 0 0 0 0 0 0 0 0 0 0 0 0
0 0 0 0 0 0 0 0 0 0 0 0 0 0 0 0 0 0 0 0 0 0 0 0 0 0 0 0 0 0 0 0 0 0 0 0 0 0 0 0 0 0 0 0
0 0 0 0 0 0 0 0 0 -0 0 0 0 0 0 0 0 0 0 0 0 0 0 0 0 0 0 0 0 0 0 0 0 0 0 0 0 0 0 0 0 0 0 0
0 0 0 0 0 0 0 0 0 0 0 0 0 0 0 0 0 0 0 0 0 0 0 0 0 0 0 0 0 0 0 0 0 0 0 0 0 0 0 0 0 0 0 0
0 0 0 0 0 0 0 0 0 -0 0 -0 0 0 -0 -0 0 0 0 0 0 0 0 0 0 0 0 0 0 0 0 0 0 0 0 0 0 0 0 0 0 0 0 0
0 0 0 0 0 0 0 -0 -0 0 0 -0 -0 -0 -0 -0 -0 -0 -0 -0 0 -0 -0 -0 -0 -0 0 0 0 0 0 0 0 0 0 0 0 0 0 0 0 0 0 0
-0 0 0 0 0 -0 0 0 0 0 -0 -0 -0 -0 -0 -0 -0 -0 -0 -0 -0 -0 -0 -0 -0 -0 -0 0 0 0 0 0 0 0 0 0 0 0 0 0 0 0 0 0
0 0 0 0 0 0 0 0 0 -0 -0 -0 -0 -0 -0 -0 0 -0 0 -0 -0 -0 -0 -0 -0 -0 -0 -0 0 0 0 0 0 0 0 0 0 0 0 0 0 0 0 0
0 0 0 0 0 0 0 0 0 0 -0 -0 -0 -0 -0 -0 -0 0 0 -0 -0 -0 -0 -0 -0 -0 0 0 0 0 0 0 0 0 0 0 0 0 0 0 0 0 0 0
0 0 0 0 0 -0 0 0 0 -0 -0 -0 -0 -0 -0 -0 0 0 -0 0 0 0 0 0 0 0 0 0 0 0 0 0 0 0 0 0 0 0 0 0 0 0 0 0
0 0 0 0 0 0 0 0 0 0 0 -0 -0 -0 -0 -0 0 -0 0 0 0 0 0 0 0 0 0 0 0 0 0 0 0 0 0 0 0 0 0 0 0 0 0 0
0 0 0 0 0 0 0 0 0 0 0 0 -0 0 0 0 -0 0 0 0 0 0 0 0 0 0 0 0 0 0 0 0 0 0 0 0 0 0 0 0 0 0 0 0
0 0 0 0 0 0 0 0 0 0 0 0 0 0 0 -0 0 0 0 0 0 0 0 0 0 0 0 0 0 0 0 0 0 0 0 0 0 0 0 0 0 0 0 0
0 -0 0 0 0 0 0 0 0 0 0 0 0 0 0 0 0 0 0 0 0 0 0 0 0 0 0 0 0 0 0 0 0 0 0 0 0 0 0 0 0 0 0 0
-0 0 0 0 -0 -0 0 0 0 0 0 0 0 0 0 0 0 0 0 0 0 0 0 0 0 0 0 0 0 0 0 0 0 0 0 0 0 0 0 0 0 0 0 0
0 0 0 0 0 0 0 0 0 0 0 0 0 0 0 0 0 0 0 0 0 0 0 0 0 0 0 0 0 0 0 0 0 0 0 0 0 0 0 0 0 0 0 0
0 0 0 0 0 0 0 0 0 0 0 0 0 0 0 0 0 0 0 0 0 0 0 0 0 0 0 0 0 0 0 0 0 0 0 0 0 0 0 0 0 0 0 0
0 0 0 0 0 0 0 0 0 0 0 0 0 0 0 0 0 0 0 0 0 0 0 0 0 0 0 0 0 0 0 0 0 0 0 0 0 0 0 0 0 0 0 0
0 0 0 0 0 0 0 0 0 0 0 0 0 0 0 0 0 0 0 0 0 0 0 0 0 0 0 0 0 0 0 0 0 0 0 0 0 0 0 0 0 0 0 0
0 0 0 0 0 0 0 0 0 0 0 0 0 0 0 0 0 0 0 0 0 0 0 0 0 0 0 0 0 0 0 0 0 0 0 0 0 0 0 0 0 0 0 0
0 0 0 0 0 0 0 0 0 0 0 0 0 0 0 0 0 0 0 0 0 0 0 0 0 0 0 0 0 0 0 0 0 0 0 0 0 0 0 0 0 0 0 0
0 0 0 0 0 0 0 0 0 0 0 0 0 0 0 0 0 0 0 0 0 0 0 0 0 0 0 0 0 0 0 0 0 0 0 0 0 0 0 0 0 0 0 0
0 0 0 0 0 0 0 0 0 0 0 0 0 0 0 0 0 0 0 0 0 0 0 0 0 0 0 0 0 0 0 0 0 0 0 0 0 0 0 0 0 0 0 0
-0 0 0 0 0 0 0 0 0 0 0 0 0 0 0 0 0 0 0 0 0 0 0 0 0 0 0 0 0 0 0 0 0 0 0 0 0 0 0 0 0 0 0 0
0 0 0 0 0 0 0 0 0 0 -0 -0 0 0 0 0 0 0 0 0 0 0 0 0 0 0 0 0 0 0 0 0 0 0 0 0 0 0 0 0 0 0 0 0
Wind_Speed_500mb
8 15 20 19 17 17 17 11 13 10 6 10 14 13 14 16 62 59 55 57 54 53 61 65 60 69 78 77 75 71 64 58 56 49 42 36 27 19 19 22 29 34 39 39
4 8 27 28 18 22 14 7 10 14 8 4 15 27 29 23 45 56 51 56 53 53 58 64 69 76 80 83 76 72 68 59 54 47 36 27 20 16 22 27 32 36 35 30
6 9 12 6 15 25 13 10 15 14 12 18 15 24 30 24 28 55 65 67 68 70 67 73 84 84 79 68 64 56 53 47 42 31 26 20 16 16 21 25 25 25 23 22
7 10 2 8 2 17 13 10 15 23 21 20 22 37 40 22 24 54 65 67 69 71 73 79 83 83 71 69 67 63 57 44 34 29 16 12 12 16 16 18 20 21 20 17
4 4 8 7 8 4 9 3 13 36 24 18 35 55 12 8 31 49 64 67 68 70 73 71 71 69 70 65 57 50 41 32 23 17 12 11 15 14 16 17 20 18 17 17
2 0 4 9 7 7 11 6 18 31 31 29 21 18 11 38 48 60 64 64 64 63 65 66 63 63 63 56 47 39 31 24 16 10 6 7 5 7 11 12 12 13 11 16
3 6 11 11 12 14 9 12 53 66 65 58 13 2 51 61 62 69 69 71 67 63 63 54 51 49 47 42 36 27 18 11 7 3 4 3 4 6 10 11 11 12 16 22
3 4 3 26 25 6 10 37 76 63 59 55 31 74 79 72 67 69 66 59 55 52 48 40 31 23 28 29 25 19 14 12 11 10 8 8 7 11 10 12 13 12 12 13
7 5 12 30 21 33 29 25 51 63 70 58 84 73 83 74 64 60 59 54 46 43 42 38 34 28 28 19 14 15 14 16 15 14 12 11 12 12 14 17 16 19 21 21
3 7 10 19 53 34 7 14 46 62 63 71 84 75 71 72 64 58 52 49 43 41 41 40 31 27 23 24 22 20 17 22 21 16 14 13 13 14 17 21 24 24 22 23
7 6 11 15 51 15 21 30 37 41 54 70 82 70 78 75 67 59 52 45 37 36 35 37 33 30 28 26 25 26 26 25 23 18 15 14 13 15 16 21 24 25 26 26
5 13 12 16 32 11 27 38 53 59 61 69 81 87 78 69 62 55 49 43 40 37 33 34 32 31 31 29 26 26 28 28 24 18 17 16 15 14 16 18 20 23 26 22
13 36 35 27 8 13 31 35 43 59 66 80 74 76 70 68 57 50 46 41 37 35 32 33 35 34 33 31 31 34 36 35 34 31 26 21 16 15 17 16 18 22 23 23
24 34 12 6 10 36 44 45 47 56 68 77 79 68 65 64 56 47 41 35 33 34 33 33 35 35 33 35 36 34 34 33 28 28 28 28 27 25 25 26 26 29 29 29
32 36 20 16 42 51 56 58 63 68 73 72 68 68 65 63 53 44 37 33 30 29 29 31 34 35 35 32 28 25 23 23 20 18 21 26 28 27 26 24 26 28 27 25
41 16 29 43 44 45 61 64 69 69 73 75 70 65 60 52 46 39 32 26 22 28 30 34 36 37 34 29 22 19 20 18 18 15 15 20 25 23 22 25 27 28 31 32
14 17 41 41 47 45 53 58 68 72 71 71 67 62 56 49 44 40 35 27 22 27 31 36 37 33 27 23 21 18 17 15 15 15 14 18 22 20 22 24 26 28 28 28
27 30 34 49 55 63 61 66 69 70 70 64 58 52 46 41 37 34 28 25 28 34 40 39 34 29 23 19 17 15 14 13 11 13 15 16 19 17 18 20 23 24 25 25
43 48 55 64 63 62 63 72 68 64 61 55 51 44 36 32 32 29 27 30 34 37 37 32 27 22 17 14 12 10 10 9 6 8 13 15 14 13 16 18 20 22 23 26
57 58 59 62 62 62 59 61 65 61 49 43 40 38 36 33 31 33 34 37 38 33 32 28 23 17 14 14 7 6 8 7 4 7 9 10 11 12 14 16 17 20 24 27
55 59 60 59 61 58 56 54 53 47 40 34 33 35 36 35 33 33 38 38 34 30 30 26 22 17 12 8 2 4 5 2 2 5 8 9 10 10 11 14 16 19 23 25
53 57 59 55 49 46 38 35 41 49 42 34 27 34 37 36 35 35 30 27 31 30 29 25 21 13 8 5 3 3 3 1 2 5 7 10 11 11 11 13 15 17 20 22
37 41 42 41 43 46 43 38 34 30 30 23 27 30 28 33 33 33 33 31 29 32 32 25 18 9 5 4 2 2 2 3 2 4 7 8 8 9 9 10 13 14 15 17
40 41 44 46 46 46 44 38 31 27 24 25 24 27 31 35 34 27 27 31 30 31 30 22 15 12 8 5 5 3 2 2 2 1 4 4 4 4 5 6 7 11 13 15
44 47 52 52 47 44 40 36 34 32 32 34 30 27 24 21 19 30 27 29 30 26 23 20 15 12 6 2 4 5 4 4 3 3 2 1 2 1 2 3 5 8 11 14
43 50 50 45 43 41 38 35 35 35 32 32 30 31 30 25 25 27 25 24 25 22 17 16 13 10 6 2 2 2 2 2 3 2 1 1 2 2 3 5 7 9 11 13
35 38 40 41 38 36 32 30 31 31 28 28 35 33 28 30 27 23 21 21 21 20 18 15 14 13 11 8 5 3 0 1 1 2 1 2 2 4 6 8 10 11 12 13
Wind_Direction_500mb
189 248 152 249 183 167 195 193 164 204 209 321 4 10 23 81 112 122 128 145 161 172 174 177 166 167 160 154 149 148 154 162 164 167 179 188 197 217 248 277 296 308 306 311
211 122 179 207 204 189 207 165 101 149 178 82 76 66 52 55 113 112 118 128 138 153 154 158 168 152 146 147 153 163 163 166 166 172 179 191 211 248 278 291 302 304 302 307
301 327 124 164 191 180 193 178 138 196 162 123 88 69 32 34 87 105 108 120 129 134 132 139 150 149 149 157 164 167 170 175 172 172 187 201 228 258 283 297 299 301 311 302
286 337 172 218 325 205 146 163 116 111 128 128 138 111 81 58 85 110 128 134 141 147 150 149 153 157 159 171 165 165 166 165 168 182 197 224 255 279 296 303 307 310 305 293
297 279 297 360 26 123 134 117 135 144 138 141 114 93 82 113 130 130 137 138 138 143 148 148 149 149 155 154 153 154 156 164 170 182 208 244 271 291 297 305 310 317 319 324
304 348 184 259 322 359 125 160 155 161 161 149 154 162 141 145 135 131 131 132 133 135 135 137 137 144 147 144 153 155 158 167 177 189 221 265 298 322 346 355 341 336 317 310
167 250 282 247 277 311 144 221 163 168 167 157 156 250 146 141 133 130 126 126 130 132 130 130 139 148 147 145 145 146 148 139 129 127 100 88 45 36 5 346 319 305 304 307
109 328 271 358 330 215 309 158 167 170 169 154 155 140 149 144 140 137 135 134 138 138 138 138 139 153 130 134 130 125 124 130 124 130 119 98 46 31 16 4 348 340 337 330
192 240 293 352 321 335 300 177 162 153 161 157 141 143 147 146 144 142 144 145 147 147 144 142 145 153 157 129 116 108 132 125 127 122 112 82 57 41 27 26 21 22 21 19
322 235 305 14 14 14 43 144 150 147 148 153 144 145 144 148 149 148 148 145 147 144 142 139 143 151 148 136 151 162 139 121 115 118 103 77 55 46 40 39 33 30 33 38
291 28 26 348 5 8 112 139 132 143 160 159 151 146 148 150 147 144 141 141 146 147 139 133 133 133 132 134 132 135 129 120 118 114 101 82 64 59 51 41 30 27 29 22
309 355 305 295 350 44 136 151 162 154 150 152 159 152 153 149 146 145 144 147 150 143 138 132 135 133 132 130 129 126 119 109 103 96 84 75 71 63 52 52 43 27 22 18
294 314 314 307 343 157 150 155 159 157 157 153 154 155 156 149 149 146 143 146 144 137 134 133 132 130 125 123 122 116 108 99 90 83 80 81 84 82 81 66 32 22 20 13
332 320 332 349 175 152 143 144 155 149 154 157 156 158 156 152 150 148 143 142 139 139 138 136 136 132 130 130 131 123 112 100 92 81 72 71 68 64 56 44 30 23 19 15
314 328 263 190 152 145 142 150 149 146 155 154 159 160 160 153 151 150 145 141 136 134 130 134 134 130 131 131 131 126 116 106 95 85 67 54 48 44 39 29 23 21 20 27
320 298 169 168 158 151 144 150 148 146 153 153 157 159 158 155 150 144 138 134 138 138 135 139 138 132 132 132 133 121 110 109 89 82 63 44 35 32 28 24 22 24 23 30
274 172 167 158 162 158 154 159 157 156 157 157 158 157 155 153 150 147 144 142 142 142 143 146 143 138 138 136 134 113 96 88 71 65 55 32 27 26 24 22 28 28 29 26
201 196 171 158 144 150 158 160 158 159 157 155 156 156 154 155 152 149 145 141 144 141 139 143 145 146 145 135 128 105 83 64 46 40 36 29 23 21 20 27 32 34 35 31
160 155 150 145 147 143 152 156 155 153 151 152 153 153 152 153 150 148 144 142 144 146 146 147 143 144 142 121 113 93 54 35 28 39 31 25 18 27 29 36 40 43 42 42
133 139 142 139 145 147 140 140 144 142 142 147 152 151 151 149 150 148 144 144 144 145 144 146 145 145 130 121 108 50 18 19 40 30 16 17 34 45 49 47 52 53 49 48
127 133 132 137 134 134 131 130 133 131 134 142 142 142 141 139 143 147 149 146 142 145 148 150 147 142 129 144 184 325 337 11 27 20 32 44 52 59 65 59 64 63 59 54
125 125 128 131 134 140 153 157 154 147 142 143 147 149 144 143 142 142 147 154 152 154 156 150 152 150 143 165 225 287 342 8 50 50 58 67 72 74 79 69 61 57 56 52
148 151 150 152 148 139 138 142 141 143 139 141 150 146 145 144 145 150 150 153 158 159 165 163 164 161 138 136 106 78 63 69 103 93 69 67 74 74 83 76 65 58 53 46
148 147 142 142 139 139 139 140 144 151 154 148 143 140 148 148 145 143 148 154 160 167 169 170 174 159 150 100 72 86 89 74 109 110 51 63 71 75 69 67 51 45 36 29
153 152 153 152 154 157 155 153 149 145 143 142 141 144 151 148 158 147 156 158 163 167 166 164 171 178 188 91 74 75 106 82 72 72 66 347 298 270 87 59 41 25 16 13
162 161 162 161 160 161 157 157 150 148 151 149 148 150 152 152 158 153 154 159 168 173 177 173 185 203 235 274 27 69 74 92 82 62 128 220 266 327 10 360 2 3 9 9
173 174 172 169 165 163 159 160 154 151 156 154 148 150 153 147 150 148 150 158 172 184 195 205 218 233 242 259 277 284 217 123 67 341 345 2 338 340 341 341 345 351 357 358
Wind_Speed_850mb
8 15 20 19 17 17 17 11 13 10 6 10 14 13 14 16 62 59 55 57 54 53 61 65 60 69 78 77 75 71 64 58 56 49 42 36 27 19 19 22 29 34 39 39
4 8 27 28 18 22 14 7 10 14 8 4 15 27 29 23 45 56 51 56 53 53 58 64 69 76 80 83 76 72 68 59 54 47 36 27 20 16 22 27 32 36 35 30
6 9 12 6 15 25 13 10 15 14 12 18 15 24 30 24 28 55 65 67 68 70 67 73 84 84 79 68 64 56 53 47 42 31 26 20 16 16 21 25 25 25 23 22
7 10 2 8 2 17 13 10 15 23 21 20 22 37 40 22 24 54 65 67 69 71 73 79 83 83 71 69 67 63 57 44 34 29 16 12 12 16 16 18 20 21 20 17
4 4 8 7 8 4 9 3 13 36 24 18 35 55 12 8 31 49 64 67 68 70 73 71 71 69 70 65 57 50 41 32 23 17 12 11 15 14 16 17 20 18 17 17
2 0 4 9 7 7 11 6 18 31 31 29 21 18 11 38 48 60 64 64 64 63 65 66 63 63 63 56 47 39 31 24 16 10 6 7 5 7 11 12 12 13 11 16
3 6 11 11 12 14 9 12 53 66 65 58 13 2 51 61 62 69 69 71 67 63 63 54 51 49 47 42 36 27 18 11 7 3 4 3 4 6 10 11 11 12 16 22
3 4 3 26 25 6 10 37 76 63 59 55 31 74 79 72 67 69 66 59 55 52 48 40 31 23 28 29 25 19 14 12 11 10 8 8 7 11 10 12 13 12 12 13
7 5 12 30 21 33 29 25 51 63 70 58 84 73 83 74 64 60 59 54 46 43 42 38 34 28 28 19 14 15 14 16 15 14 12 11 12 12 14 17 16 19 21 21
3 7 10 19 53 34 7 14 46 62 63 71 84 75 71 72 64 58 52 49 43 41 41 40 31 27 23 24 22 20 17 22 21 16 14 13 13 14 17 21 24 24 22 23
7 6 11 15 51 15 21 30 37 41 54 70 82 70 78 75 67 59 52 45 37 36 35 37 33 30 28 26 25 26 26 25 23 18 15 14 13 15 16 21 24 25 26 26
5 13 12 16 32 11 27 38 53 59 61 69 81 87 78 69 62 55 49 43 40 37 33 34 32 31 31 29 26 26 28 28 24 18 17 16 15 14 16 18 20 23 26 22
13 36 35 27 8 13 31 35 43 59 66 80 74 76 70 68 57 50 46 41 37 35 32 33 35 34 33 31 31 34 36 35 34 31 26 21 16 15 17 16 18 22 23 23
24 34 12 6 10 36 44 45 47 56 68 77 79 68 65 64 56 47 41 35 33 34 33 33 35 35 33 35 36 34 34 33 28 28 28 28 27 25 25 26 26 29 29 29
32 36 20 16 42 51 56 58 63 68 73 72 68 68 65 63 53 44 37 33 30 29 29 31 34 35 35 32 28 25 23 23 20 18 21 26 28 27 26 24 26 28 27 25
41 16 29 43 44 45 61 64 69 69 73 75 70 65 60 52 46 39 32 26 22 28 30 34 36 37 34 29 22 19 20 18 18 15 15 20 25 23 22 25 27 28 31 32
14 17 41 41 47 45 53 58 68 72 71 71 67 62 56 49 44 40 35 27 22 27 31 36 37 33 27 23 21 18 17 15 15 15 14 18 22 20 22 24 26 28 28 28
27 30 34 49 55 63 61 66 69 70 70 64 58 52 46 41 37 34 28 25 28 34 40 39 34 29 23 19 17 15 14 13 11 13 15 16 19 17 18 20 23 24 25 25
43 48 55 64 63 62 63 72 68 64 61 55 51 44 36 32 32 29 27 30 34 37 37 32 27 22 17 14 12 10 10 9 6 8 13 15 14 13 16 18 20 22 23 26
57 58 59 62 62 62 59 61 65 61 49 43 40 38 36 33 31 33 34 37 38 33 32 28 23 17 14 14 7 6 8 7 4 7 9 10 11 12 14 16 17 20 24 27
55 59 60 59 61 58 56 54 53 47 40 34 33 35 36 35 33 33 38 38 34 30 30 26 22 17 12 8 2 4 5 2 2 5 8 9 10 10 11 14 16 19 23 25
53 57 59 55 49 46 38 35 41 49 42 34 27 34 37 36 35 35 30 27 31 30 29 25 21 13 8 5 3 3 3 1 2 5 7 10 11 11 11 13 15 17 20 22
37 41 42 41 43 46 43 38 34 30 30 23 27 30 28 33 33 33 33 31 29 32 32 25 18 9 5 4 2 2 2 3 2 4 7 8 8 9 9 10 13 14 15 17
40 41 44 46 46 46 44 38 31 27 24 25 24 27 31 35 34 27 27 31 30 31 30 22 15 12 8 5 5 3 2 2 2 1 4 4 4 4 5 6 7 11 13 15
44 47 52 52 47 44 40 36 34 32 32 34 30 27 24 21 19 30 27 29 30 26 23 20 15 12 6 2 4 5 4 4 3 3 2 1 2 1 2 3 5 8 11 14
43 50 50 45 43 41 38 35 35 35 32 32 30 31 30 25 25 27 25 24 25 22 17 16 13 10 6 2 2 2 2 2 3 2 1 1 2 2 3 5 7 9 11 13
35 38 40 41 38 36 32 30 31 31 28 28 35 33 28 30 27 23 21 21 21 20 18 15 14 13 11 8 5 3 0 1 1 2 1 2 2 4 6 8 10 11 12 13
Wind_Direction_850mb
189 248 152 249 183 167 195 193 164 204 209 321 4 10 23 81 112 122 128 145 161 172 174 177 166 167 160 154 149 148 154 162 164 167 179 188 197 217 248 277 296 308 306 311
211 122 179 207 204 189 207 165 101 149 178 82 76 66 52 55 113 112 118 128 138 153 154 158 168 152 146 147 153 163 163 166 166 172 179 191 211 248 278 291 302 304 302 307
301 327 124 164 191 180 193 178 138 196 162 123 88 69 32 34 87 105 108 120 129 134 132 139 150 149 149 157 164 167 170 175 172 172 187 201 228 258 283 297 299 301 311 302
286 337 172 218 325 205 146 163 116 111 128 128 138 111 81 58 85 110 128 134 141 147 150 149 153 157 159 171 165 165 166 165 168 182 197 224 255 279 296 303 307 310 305 293
297 279 297 360 26 123 134 117 135 144 138 141 114 93 82 113 130 130 137 138 138 143 148 148 149 149 155 154 153 154 156 164 170 182 208 244 271 291 297 305 310 317 319 324
304 348 184 259 322 359 125 160 155 161 161 149 154 162 141 145 135 131 131 132 133 135 135 137 137 144 147 144 153 155 158 167 177 189 221 265 298 322 346 355 341 336 317 310
167 250 282 247 277 311 144 221 163 168 167 157 156 250 146 141 133 130 126 126 130 132 130 130 139 148 147 145 145 146 148 139 129 127 100 88 45 36 5 346 319 305 304 307
109 328 271 358 330 215 309 158 167 170 169 154 155 140 149 144 140 137 135 134 138 138 138 138 139 153 130 134 130 125 124 130 124 130 119 98 46 31 16 4 348 340 337 330
192 240 293 352 321 335 300 177 162 153 161 157 141 143 147 146 144 142 144 145 147 147 144 142 145 153 157 129 116 108 132 125 127 122 112 82 57 41 27 26 21 22 21 19
322 235 305 14 14 14 43 144 150 147 148 153 144 145 144 148 149 148 148 145 147 144 142 139 143 151 148 136 151 162 139 121 115 118 103 77 55 46 40 39 33 30 33 38
291 28 26 348 5 8 112 139 132 143 160 159 151 146 148 150 147 144 141 141 146 147 139 133 133 133 132 134 132 135 129 120 118 114 101 82 64 59 51 41 30 27 29 22
309 355 305 295 350 44 136 151 162 154 150 152 159 152 153 149 146 145 144 147 150 143 138 132 135 133 132 130 129 126 119 109 103 96 84 75 71 63 52 52 43 27 22 18
294 314 314 307 343 157 150 155 159 157 157 153 154 155 156 149 149 146 143 146 144 137 134 133 132 130 125 123 122 116 108 99 90 83 80 81 84 82 81 66 32 22 20 13
332 320 332 349 175 152 143 144 155 149 154 157 156 158 156 152 150 148 143 142 139 139 138 136 136 132 130 130 131 123 112 100 92 81 72 71 68 64 56 44 30 23 19 15
314 328 263 190 152 145 142 150 149 146 155 154 159 160 160 153 151 150 145 141 136 134 130 134 134 130 131 131 131 126 116 106 95 85 67 54 48 44 39 29 23 21 20 27
320 298 169 168 158 151 144 150 148 146 153 153 157 159 158 155 150 144 138 134 138 138 135 139 138 132 132 132 133 121 110 109 89 82 63 44 35 32 28 24 22 24 23 30
274 172 167 158 162 158 154 159 157 156 157 157 158 157 155 153 150 147 144 142 142 142 143 146 143 138 138 136 134 113 96 88 71 65 55 32 27 26 24 22 28 28 29 26
201 196 171 158 144 150 158 160 158 159 157 155 156 156 154 155 152 149 145 141 144 141 139 143 145 146 145 135 128 105 83 64 46 40 36 29 23 21 20 27 32 34 35 31
160 155 150 145 147 143 152 156 155 153 151 152 153 153 152 153 150 148 144 142 144 146 146 147 143 144 142 121 113 93 54 35 28 39 31 25 18 27 29 36 40 43 42 42
133 139 142 139 145 147 140 140 144 142 142 147 152 151 151 149 150 148 144 144 144 145 144 146 145 145 130 121 108 50 18 19 40 30 16 17 34 45 49 47 52 53 49 48
127 133 132 137 134 134 131 130 133 131 134 142 142 142 141 139 143 147 149 146 142 145 148 150 147 142 129 144 184 325 337 11 27 20 32 44 52 59 65 59 64 63 59 54
125 125 128 131 134 140 153 157 154 147 142 143 147 149 144 143 142 142 147 154 152 154 156 150 152 150 143 165 225 287 342 8 50 50 58 67 72 74 79 69 61 57 56 52
148 151 150 152 148 139 138 142 141 143 139 141 150 146 145 144 145 150 150 153 158 159 165 163 164 161 138 136 106 78 63 69 103 93 69 67 74 74 83 76 65 58 53 46
148 147 142 142 139 139 139 140 144 151 154 148 143 140 148 148 145 143 148 154 160 167 169 170 174 159 150 100 72 86 89 74 109 110 51 63 71 75 69 67 51 45 36 29
153 152 153 152 154 157 155 153 149 145 143 142 141 144 151 148 158 147 156 158 163 167 166 164 171 178 188 91 74 75 106 82 72 72 66 347 298 270 87 59 41 25 16 13
162 161 162 161 160 161 157 157 150 148 151 149 148 150 152 152 158 153 154 159 168 173 177 173 185 203 235 274 27 69 74 92 82 62 128 220 266 327 10 360 2 3 9 9
173 174 172 169 165 163 159 160 154 151 156 154 148 150 153 147 150 148 150 158 172 184 195 205 218 233 242 259 277 284 217 123 67 341 345 2 338 340 341 341 345 351 357 358